EW6468 Weather Reports


time (UTC)temp
F
wind
direction
speed
knots
gust
knots
rain 1hr
in
rain 24hr
in
rain mn
in
humidity
%
barometer
mb
20260505194550 83 36 0.0 3.5 0.00 0.00 0.00 66 1006.6
20260505193102 83 173 0.9 4.3 0.00 0.00 0.00 66 1006.5
20260505191542 82 194 0.9 3.5 0.00 0.00 0.00 68 1006.8
20260505190042 82 172 0.9 3.5 0.00 0.00 0.00 67 1006.9
20260505184537 81 119 0.0 2.6 0.00 0.00 0.00 69 1007.0
20260505183035 81 182 0.0 2.6 0.00 0.00 0.00 69 1007.1
20260505181534 81 220 0.9 2.6 0.00 0.00 0.00 69 1007.1
20260505180038 80 175 0.9 2.6 0.00 0.00 0.00 70 1007.2
20260505174530 80 172 0.9 3.5 0.00 0.00 0.00 70 1007.3
20260505173028 79 182 0.0 2.6 0.00 0.00 0.00 72 1007.6
20260505171528 79 176 0.9 2.6 0.00 0.00 0.00 72 1007.7
20260505170024 78 176 0.0 2.6 0.00 0.00 0.00 73 1007.6
20260505164524 78 176 0.0 1.7 0.00 0.00 0.00 73 1007.8
20260505163030 78 164 0.0 3.5 0.00 0.00 0.00 72 1007.7
20260505161522 78 166 0.9 3.5 0.00 0.00 0.00 72 1007.6
20260505153023 77 19 0.0 2.6 0.00 0.00 0.00 72 1007.6
20260505151519 77 204 0.0 1.7 0.00 0.00 0.00 73 1007.4
20260505124504 74 207 0.9 2.6 0.00 0.00 0.00 76 1006.6
20260505123002 73 207 0.9 1.7 0.00 0.00 0.00 76 1006.9
20260505121502 73 207 0.0 2.6 0.00 0.00 0.00 76 1006.9
20260505120002 73 207 0.0 2.6 0.00 0.00 0.00 76 1006.6
20260505114600 73 207 0.9 1.7 0.00 0.00 0.00 76 1006.6
20260505113107 73 207 0.0 1.7 0.00 0.00 0.00 76 1006.7
20260505111557 73 207 0.0 1.7 0.00 0.00 0.00 76 1006.6
20260505101553 72 207 0.0 1.7 0.00 0.00 0.00 76 1006.7
20260505100053 72 207 0.0 0.9 0.00 0.00 0.00 76 1006.8
20260505094552 72 207 0.0 1.7 0.00 0.00 0.00 75 1006.7
20260505093047 72 207 0.0 0.9 0.00 0.00 0.00 75 1006.9
20260505090059 71 207 0.0 0.9 0.00 0.00 0.00 75 1006.9
20260505084602 71 207 0.0 1.7 0.00 0.00 0.00 74 1006.9
20260505083059 71 207 0.0 1.7 0.00 0.00 0.00 74 1007.2
20260505081555 71 207 0.0 1.7 0.00 0.00 0.00 74 1007.2
20260505080055 71 207 0.0 1.7 0.00 0.00 0.00 74 1007.5
20260505074540 71 207 0.0 0.9 0.00 0.00 0.00 73 1007.5
20260505073050 71 207 0.0 0.9 0.00 0.00 0.00 73 1007.6
20260505071545 71 207 0.0 0.9 0.00 0.00 0.00 72 1007.7
20260505070043 71 207 0.0 1.7 0.00 0.00 0.00 72 1007.8
20260505064536 71 207 0.9 1.7 0.00 0.00 0.00 71 1007.9
20260505063038 71 207 0.0 1.7 0.00 0.00 0.00 71 1008.3
20260505061532 71 207 0.9 1.7 0.00 0.00 0.00 71 1008.4
20260505060050 71 207 0.0 2.6 0.00 0.00 0.00 71 1008.3
20260505054530 71 347 0.9 1.7 0.00 0.00 0.00 70 1008.5
20260505053025 72 347 0.0 1.7 0.00 0.00 0.00 69 1008.7
20260505051524 72 347 0.0 1.7 0.00 0.00 0.00 68 1008.9
20260505041519 74 191 0.9 2.6 0.00 0.00 0.00 65 1008.7
20260505040023 74 216 0.9 2.6 0.00 0.00 0.00 65 1009.0
20260505034519 74 198 0.9 3.5 0.00 0.00 0.00 65 1009.0
20260505033018 74 170 1.7 4.3 0.00 0.00 0.00 64 1009.2
20260505031517 74 177 0.9 3.5 0.00 0.00 0.00 64 1009.1
20260505030016 74 182 0.9 2.6 0.00 0.00 0.00 64 1009.0
20260505024518 74 169 0.9 3.5 0.00 0.00 0.00 63 1008.9
20260505023017 75 174 0.9 2.6 0.00 0.00 0.00 63 1009.0
20260505021514 75 167 0.9 4.3 0.00 0.00 0.00 63 1008.9
20260505020015 75 166 0.9 3.5 0.00 0.00 0.00 63 1008.7
20260505014529 75 161 0.9 2.6 0.00 0.00 0.00 63 1008.6
20260505013014 75 161 0.0 2.6 0.00 0.00 0.00 63 1008.5
20260505011513 75 135 0.0 1.7 0.00 0.00 0.00 62 1008.5
20260505010013 76 150 0.9 1.7 0.00 0.00 0.00 61 1008.5
20260505004513 76 159 0.9 4.3 0.00 0.00 0.00 60 1008.3
20260505003010 77 158 0.9 4.3 0.00 0.00 0.00 60 1008.3
20260505001510 77 192 0.9 2.6 0.00 0.00 0.00 59 1008.4
20260505000011 77 192 0.9 2.6 0.00 0.00 0.00 59 1008.6
20260504234508 77 177 1.7 4.3 0.00 0.00 0.00 58 1008.4
20260504233006 78 170 0.9 3.5 0.00 0.00 0.00 58 1008.5
20260504231505 78 180 0.9 3.5 0.00 0.00 0.00 58 1008.7
20260504230006 79 178 0.9 4.3 0.00 0.00 0.00 57 1008.8
20260504224508 80 180 0.9 3.5 0.00 0.00 0.00 56 1008.9
20260504223001 80 175 0.9 3.5 0.00 0.00 0.00 54 1009.0
20260504221603 80 190 0.9 3.5 0.00 0.00 0.00 54 1009.3
20260504221500 80 190 0.9 3.5 0.00 0.00 0.00 54 1009.3
20260504214559 81 167 1.7 4.3 0.00 0.00 0.00 53 1009.5
20260504213106 81 167 1.7 5.2 0.00 0.00 0.00 52 1009.5
20260504211644 81 180 0.0 2.6 0.00 0.00 0.00 53 1009.7
20260504210055 82 180 0.9 3.5 0.00 0.00 0.00 51 1009.9
20260504204552 81 167 1.7 3.5 0.00 0.00 0.00 52 1010.3
20260504203050 82 161 0.9 2.6 0.00 0.00 0.00 52 1010.4
20260504201547 82 261 0.9 4.3 0.00 0.00 0.00 52 1010.6
20260504200046 81 172 1.7 4.3 0.00 0.00 0.00 51 1010.9